DL7MAP-13 Weather Reports


Display with metric or nautical units.
time (UTC)temp
F
wind
direction
speed
MPH
gust
MPH
rain 1hr
in
rain 24hr
in
rain mn
in
humidity
%
barometer
mb
20260904034715 65 0.0 0.0 0.00 0.00 0.00 81 1008.1
20260904033215 65 0.0 0.0 0.00 0.00 0.00 80 1008.0
20260904031716 65 0.0 0.0 0.00 0.00 0.00 80 1008.0
20260904030216 65 0.0 0.0 0.00 0.00 0.00 80 1008.6
20260904024715 65 0.0 0.0 0.00 0.00 0.00 80 1007.9
20260904023215 65 0.0 0.0 0.00 0.00 0.00 81 1008.1
20260904021715 65 0.0 0.0 0.00 0.00 0.00 81 1008.3
20260904020216 65 0.0 0.0 0.00 0.00 0.00 81 1008.1
20260904014715 65 0.0 0.0 0.00 0.00 0.00 82 1008.6
20260904013215 65 0.0 0.0 0.00 0.00 0.00 82 1008.1
20260904011716 65 0.0 0.0 0.00 0.00 0.00 82 1008.5
20260904010215 65 0.0 0.0 0.00 0.00 0.00 82 1008.3
20260904004716 65 0.0 0.0 0.00 0.00 0.00 82 1008.2
20260904003215 65 0.0 0.0 0.00 0.00 0.00 83 1008.3
20260904001716 65 0.0 0.0 0.00 0.00 0.00 83 1008.8
20260904000215 65 0.0 0.0 0.00 0.00 0.00 83 1008.4
20260903234715 65 0.0 0.0 0.00 0.00 0.00 83 1008.9
20260903233215 65 0.0 0.0 0.00 0.00 0.00 83 1008.9
20260903231716 64 0.0 0.0 0.00 0.00 0.00 83 1009.2
20260903230216 64 0.0 0.0 0.00 0.00 0.00 83 1009.3
20260903224715 64 0.0 0.0 0.00 0.00 0.00 83 1009.1
20260903223215 65 0.0 0.0 0.00 0.00 0.00 83 1008.8
20260903221715 65 0.0 0.0 0.00 0.00 0.00 82 1009.1
20260903220216 65 0.0 0.0 0.00 0.00 0.00 83 1009.2
20260903214715 65 0.0 0.0 0.00 0.00 0.00 83
20260903213215 65 0.0 0.0 0.00 0.00 0.00 85 1009.2
20260903211715 64 0.0 0.0 0.00 0.00 0.00 85 1009.8
20260903210215 65 0.0 0.0 0.00 0.00 0.00 83 1008.9
20260903204716 67 0.0 0.0 0.00 0.00 0.00 75 1007.4
20260903203215 68 0.0 0.0 0.00 0.00 0.00 75 1008.4
20260903201716 68 0.0 0.0 0.00 0.00 0.00 75 1008.9
20260903200216 68 0.0 0.0 0.00 0.00 0.00 75 1008.9
20260903194716 68 0.0 0.0 0.00 0.00 0.00 74 1009.0
20260903193215 68 0.0 0.0 0.00 0.00 0.00 75 1008.9
20260903191715 67 0.0 0.0 0.00 0.00 0.00 77 1008.9
20260903190216 67 0.0 0.0 0.00 0.00 0.00 77 1008.8
20260903184715 67 0.0 0.0 0.00 0.00 0.00 78 1009.2
20260903183215 67 0.0 0.0 0.00 0.00 0.00 80 1008.8
20260903181715 67 0.0 0.0 0.00 0.00 0.00 81 1009.3
20260903180215 67 0.0 0.0 0.00 0.00 0.00 81 1009.0
20260903174716 67 0.0 0.0 0.00 0.00 0.00 82 1008.5
20260903173216 66 0.0 0.0 0.00 0.00 0.00 83 1008.7
20260903171715 66 0.0 0.0 0.00 0.00 0.00 83 1008.8
20260903170215 66 0.0 0.0 0.00 0.00 0.00 83 1008.7
20260903164716 66 0.0 0.0 0.00 0.00 0.00 83 1008.7
20260903163215 66 0.0 0.0 0.00 0.00 0.00 82 1009.1
20260903161715 66 0.0 0.0 0.00 0.00 0.00 81 1008.5
20260903160215 66 0.0 0.0 0.00 0.00 0.00 80 1009.0
20260903154715 68 0.0 0.0 0.00 0.00 0.00 73 1008.1
20260903153215 73 0.0 0.0 0.00 0.00 0.00 59 1008.2
20260903151715 74 0.0 0.0 0.00 0.00 0.00 58 1007.8
20260903150215 73 0.0 0.0 0.00 0.00 0.00 59 1009.0
20260903144715 73 0.0 0.0 0.00 0.00 0.00 60 1008.8
20260903143215 72 0.0 0.0 0.00 0.00 0.00 61 1009.3
20260903141715 72 0.0 0.0 0.00 0.00 0.00 62 1008.5
20260903140215 72 0.0 0.0 0.00 0.00 0.00 61 1008.9
20260903134715 73 0.0 0.0 0.00 0.00 0.00 58 1009.0
20260903133216 74 0.0 0.0 0.00 0.00 0.00 56 1008.7
20260903131716 74 0.0 0.0 0.00 0.00 0.00 56 1009.2
20260903130215 73 0.0 0.0 0.00 0.00 0.00 56 1008.7
20260903124715 73 0.0 0.0 0.00 0.00 0.00 57 1009.3
20260903123215 72 0.0 0.0 0.00 0.00 0.00 58 1009.6
20260903121715 72 0.0 0.0 0.00 0.00 0.00 58 1009.6
20260903120216 72 0.0 0.0 0.00 0.00 0.00 59 1009.6
20260903114715 71 0.0 0.0 0.00 0.00 0.00 59 1009.6
20260903113215 70 0.0 0.0 0.00 0.00 0.00 59 1010.3
20260903111715 70 0.0 0.0 0.00 0.00 0.00 59 1010.4
20260903110215 70 0.0 0.0 0.00 0.00 0.00 60 1010.1
20260903104715 69 0.0 0.0 0.00 0.00 0.00 61 1010.1
20260903103216 69 0.0 0.0 0.00 0.00 0.00 61 1010.3
20260903101715 69 0.0 0.0 0.00 0.00 0.00 62 1010.5
20260903100216 69 0.0 0.0 0.00 0.00 0.00 62 1011.2
20260903094715 69 0.0 0.0 0.00 0.00 0.00 64 1010.9
20260903093215 68 0.0 0.0 0.00 0.00 0.00 66 1011.4
20260903091716 67 0.0 0.0 0.00 0.00 0.00 68 1011.9
20260903090216 67 0.0 0.0 0.00 0.00 0.00 69 1011.9
20260903084715 66 0.0 0.0 0.00 0.00 0.00 70 1011.8
20260903083215 65 0.0 0.0 0.00 0.00 0.00 71 1012.0
20260903081715 65 0.0 0.0 0.00 0.00 0.00 72 1012.4
20260903080215 65 0.0 0.0 0.00 0.00 0.00 72 1012.5
20260903074715 64 0.0 0.0 0.00 0.00 0.00 73 1011.9
20260903073215 63 0.0 0.0 0.00 0.00 0.00 74 1012.8
20260903071715 62 0.0 0.0 0.00 0.00 0.00 76 1012.2
20260903070215 61 0.0 0.0 0.00 0.00 0.00 79 1012.8
20260903064715 60 0.0 0.0 0.00 0.00 0.00 80 1012.5
20260903063215 60 0.0 0.0 0.00 0.00 0.00 81 1012.7
20260903061715 59 0.0 0.0 0.00 0.00 0.00 81 1012.3
20260903060215 59 0.0 0.0 0.00 0.00 0.00 82 1013.0
20260903054715 59 0.0 0.0 0.00 0.00 0.00 82 1013.2
20260903053215 58 0.0 0.0 0.00 0.00 0.00 82 1012.8
20260903051716 58 0.0 0.0 0.00 0.00 0.00 83 1012.8
20260903050216 58 0.0 0.0 0.00 0.00 0.00 83 1012.9
20260903044715 58 0.0 0.0 0.00 0.00 0.00 83 1012.6
20260903043216 58 0.0 0.0 0.00 0.00 0.00 83 1012.5
20260903041715 58 0.0 0.0 0.00 0.00 0.00 83 1012.8
20260903040215 58 0.0 0.0 0.00 0.00 0.00 83 1012.4